Home   Weather   Vadsø   Past weeks

Flag for Norway Past Weather in Vadsø, Norway — Yesterday and Last 2 Weeks

Now
23 °F

Light mixture of precip. Passing clouds.


Feels Like: 9 °F
Forecast: 27 / 30 °F
Wind: 17 mph from West

Location: Vadso

Current Time: Jan 20, 2017 at 1:18:54 pm

Latest Report: Jan 20, 2017 at 11:50 am


Visibility: N/A

Pressure: 29.15 "Hg

Humidity: 93%

Dew Point: 21 °F

Location of VadsøLocation

Past Weather in Vadsø — Graph

°F

Vadsø Temperature Yesterday

Maximum temperature yesterday: 30 °F (at 4:50 am)
Minimum temperature yesterday: 21 °F (at 10:50 pm)
Average temperature yesterday: 25 °F

High & Low Weather Summary for the Past Weeks

 TemperatureHumidityPressure
High36 °F (Jan 11, 10:50 pm)100% (Jan 8, 9:50 pm)30.30 "Hg (Jan 8, 9:50 pm)
Low10 °F (Jan 5, 8:50 pm)64% (Jan 17, 12:50 am)28.88 "Hg (Jan 11, 3:50 pm)
Average25 °F84%29.42 "Hg
* Reported Jan 5 11:50 am — Jan 20 11:50 am, Vadsø, Weather by CustomWeather, © 2017

Note: Actual official high and low records may vary slightly from our data, if they occured in-between our weather recording intervals... More about our weather records

Advertising

Vadsø Weather History for the Previous 24 Hours

Scroll right to see more
 ConditionsComfort  
Time TempWeatherWind HumidityBarometerVisibility
11:50 am
Fri, Jan 20
23 °FLight mixture of precip. Passing clouds.17 mph93%29.15 "HgN/A
10:50 am23 °FSnow showers. Ice fog.17 mph86%29.15 "Hg1 mi
9:50 am25 °FLight mixture of precip. Partly sunny.29 mph86%29.15 "HgN/A
8:50 am23 °FSnow showers. Partly sunny.32 mph93%29.15 "Hg2 mi
7:50 am25 °FLight mixture of precip. Passing clouds.36 mph80%29.15 "HgN/A
6:50 am25 °FSnow flurries. Passing clouds.31 mph86%29.15 "HgN/A
5:50 am23 °FSnow flurries. Passing clouds.32 mph86%29.18 "HgN/A
5:20 am23 °FSnow flurries. Partly cloudy.30 mph93%29.18 "HgN/A
4:50 am23 °FSnow showers. Ice fog.29 mph93%29.21 "Hg3 mi
12:50 am21 °FSnow flurries. Passing clouds.25 mph86%29.21 "HgN/A
11:50 pm
Thu, Jan 19
21 °FSnow flurries. Partly cloudy.32 mph93%29.18 "HgN/A
10:50 pm21 °FPassing clouds.24 mph86%29.18 "HgN/A
9:50 pm23 °FPassing clouds.35 mph86%29.15 "HgN/A
8:50 pm23 °FPassing clouds.23 mph80%29.12 "HgN/A
7:50 pm25 °FSnow flurries. Passing clouds.16 mph93%29.12 "HgN/A
6:50 pm25 °FSnow flurries. Ice fog.15 mph93%29.09 "Hg3 mi
5:50 pm25 °FSnow flurries. Partly cloudy.17 mph80%29.06 "HgN/A
4:50 pm23 °FPassing clouds.13 mph86%29.00 "HgN/A
3:50 pm25 °FPartly cloudy.14 mph86%28.97 "HgN/A
2:50 pm23 °FPartly cloudy.8 mph93%28.94 "HgN/A
2:20 pm25 °FLight mixture of precip. Passing clouds.8 mph93%28.94 "HgN/A
1:20 pm27 °FSnow. Ice fog.14 mph86%28.97 "Hg1 mi
Weather by CustomWeather, © 2017

See weather overviewHow to use our weather pages